DW7394 Weather Reports


Display with metric or nautical units.
time (UTC)temp
F
wind
direction
speed
MPH
gust
MPH
rain 1hr
in
rain 24hr
in
rain mn
in
humidity
%
barometer
mb
20260509211549 69 226 12.0 34.0 0.00 0.19 0.01 56 1002.9
20260509211048 69 238 16.0 35.0 0.00 0.19 0.01 57 1003.1
20260509210550 69 232 21.0 35.0 0.00 0.19 0.01 58 1003.2
20260509210047 69 218 12.0 35.0 0.00 0.19 0.01 57 1003.3
20260509205545 69 222 17.0 35.0 0.00 0.19 0.01 58 1003.3
20260509205045 69 200 14.0 35.0 0.00 0.19 0.01 59 1003.4
20260509204545 69 177 12.0 34.0 0.00 0.19 0.01 60 1003.4
20260509204044 69 177 15.0 34.0 0.00 0.19 0.01 59 1003.7
20260509203545 69 182 13.0 36.0 0.00 0.19 0.01 60 1003.7
20260509203043 69 237 17.0 36.0 0.00 0.19 0.01 59 1003.8
20260509202541 69 199 9.0 29.0 0.00 0.19 0.01 60 1003.9
20260509202043 69 218 19.0 30.0 0.00 0.19 0.01 58 1004.0
20260509201551 69 293 12.0 25.0 0.00 0.19 0.01 59 1004.1
20260509201038 69 218 11.0 36.0 0.00 0.19 0.01 57 1004.1
20260509200537 69 203 17.0 36.0 0.00 0.19 0.01 57 1004.2
20260509200047 69 173 20.0 33.0 0.00 0.19 0.01 58 1004.1
20260509195537 69 230 15.0 32.0 0.00 0.19 0.01 58 1004.2
20260509195035 69 238 9.0 33.0 0.00 0.19 0.01 58 1004.2
20260509194536 70 194 18.0 33.0 0.00 0.19 0.01 58 1004.4
20260509194035 70 197 9.0 27.0 0.00 0.19 0.01 58 1004.4
20260509193535 70 162 12.0 25.0 0.00 0.19 0.01 58 1004.4
20260509193037 70 201 10.0 28.0 0.00 0.19 0.01 59 1004.5
20260509192531 69 259 14.0 33.0 0.00 0.19 0.01 61 1004.7
20260509192032 69 133 12.0 34.0 0.00 0.19 0.01 60 1004.7
20260509191529 69 209 12.0 32.0 0.00 0.19 0.01 61 1004.7
20260509191031 68 182 19.0 32.0 0.00 0.19 0.01 60 1005.0
20260509190527 68 206 17.0 32.0 0.00 0.19 0.01 61 1005.1
20260509190027 68 184 15.0 32.0 0.00 0.19 0.01 61 1005.1
20260509185527 67 197 13.0 25.0 0.00 0.19 0.01 61 1005.1
20260509185026 67 203 13.0 25.0 0.00 0.19 0.01 62 1005.2
20260509184538 67 240 11.0 24.0 0.00 0.19 0.01 62 1005.2
20260509184025 67 220 10.0 24.0 0.00 0.19 0.01 62 1005.3
20260509183525 68 212 14.0 26.0 0.00 0.19 0.01 60 1005.4
20260509183025 68 230 12.0 26.0 0.00 0.19 0.01 60 1005.2
20260509182524 68 238 13.0 25.0 0.00 0.19 0.01 62 1005.3
20260509182024 68 203 15.0 25.0 0.00 0.19 0.01 59 1005.4
20260509181523 68 214 9.0 22.0 0.00 0.19 0.01 60 1005.2
20260509181029 68 242 8.0 27.0 0.00 0.19 0.01 60 1005.2
20260509180521 68 185 10.0 27.0 0.00 0.19 0.01 60 1005.1
20260509180021 68 184 14.0 27.0 0.00 0.19 0.01 59 1005.0
20260509175620 68 159 10.0 24.0 0.00 0.19 0.01 59 1005.0
20260509175034 68 250 11.0 24.0 0.00 0.19 0.01 59 1005.3
20260509174533 67 187 8.0 23.0 0.00 0.19 0.01 58 1005.5
20260509174032 67 218 8.0 19.0 0.00 0.19 0.01 58 1005.5
20260509173531 67 175 9.0 22.0 0.00 0.19 0.01 58 1005.5
20260509173032 67 194 12.0 23.0 0.00 0.19 0.01 58 1005.5
20260509172530 67 223 15.0 23.0 0.00 0.19 0.01 59 1005.6
20260509172029 67 227 12.0 21.0 0.00 0.19 0.01 59 1005.6
20260509171539 67 222 9.0 21.0 0.00 0.19 0.01 58 1005.5
20260509171027 67 227 12.0 21.0 0.00 0.19 0.01 58 1005.5
20260509170526 67 216 4.0 20.0 0.00 0.19 0.01 62 1005.5
20260509170025 66 132 8.0 22.0 0.00 0.19 0.01 62 1005.5
20260509165524 66 219 8.0 24.0 0.00 0.19 0.01 63 1005.5
20260509165022 65 232 13.0 24.0 0.00 0.19 0.01 62 1005.6
20260509164522 65 195 11.0 23.0 0.00 0.19 0.01 62 1005.6
20260509164021 65 200 13.0 21.0 0.00 0.19 0.01 63 1005.5
20260509163519 64 182 12.0 21.0 0.00 0.19 0.01 63 1005.6
20260509163019 64 218 8.0 22.0 0.00 0.19 0.01 64 1005.5
20260509162518 64 207 11.0 22.0 0.00 0.19 0.01 63 1005.7
20260509162016 65 189 8.0 25.0 0.00 0.19 0.01 64 1005.8
20260509161515 65 215 10.0 25.0 0.00 0.19 0.01 65 1005.9
20260509161018 65 269 12.0 25.0 0.00 0.19 0.01 65 1006.0
20260509160513 65 264 11.0 22.0 0.00 0.19 0.01 66 1006.1
20260509160018 65 218 14.0 22.0 0.00 0.19 0.01 68 1006.2
20260509155511 64 187 12.0 21.0 0.00 0.19 0.01 68 1006.2
20260509155011 64 253 11.0 21.0 0.00 0.19 0.01 67 1006.1
20260509154508 63 215 11.0 23.0 0.00 0.19 0.01 70 1006.1
20260509154006 63 218 11.0 23.0 0.00 0.19 0.01 72 1006.2
20260509153505 62 91 5.0 23.0 0.00 0.19 0.01 73 1006.2
20260509153008 61 186 7.0 17.0 0.00 0.19 0.01 76 1006.3
20260509152503 60 227 10.0 21.0 0.00 0.19 0.01 78 1006.3
20260509152001 59 305 8.0 21.0 0.00 0.19 0.01 79 1006.2
20260509151605 58 226 12.0 21.0 0.00 0.19 0.01 79 1006.2
20260509151059 58 241 8.0 20.0 0.00 0.19 0.01 79 1006.2
20260509150557 58 252 4.0 17.0 0.00 0.19 0.01 80 1006.1
20260509150114 58 226 9.0 20.0 0.00 0.19 0.01 81 1006.3
20260509145556 58 206 4.0 20.0 0.00 0.19 0.01 82 1006.2
20260509145055 57 218 9.0 17.0 0.00 0.19 0.01 82 1006.2
20260509144706 57 217 8.0 13.0 0.00 0.19 0.01 83 1006.2
20260509144056 57 290 5.0 13.0 0.00 0.19 0.01 84 1006.2
20260509143552 56 97 4.0 13.0 0.00 0.19 0.01 84 1006.2
20260509143052 56 266 5.0 16.0 0.00 0.19 0.01 84 1006.2
20260509142552 56 225 9.0 16.0 0.00 0.19 0.01 85 1006.3
20260509142049 56 245 6.0 13.0 0.00 0.19 0.01 85 1006.2
20260509141548 56 267 7.0 14.0 0.00 0.19 0.01 86 1006.2
20260509141048 55 225 7.0 14.0 0.00 0.19 0.01 86 1006.3
20260509140546 55 224 7.0 15.0 0.00 0.19 0.01 86 1006.3
20260509140046 55 356 6.0 20.0 0.00 0.19 0.01 87 1006.4
20260509135545 55 206 8.0 20.0 0.00 0.20 0.01 87 1006.3
20260509135045 55 226 9.0 18.0 0.00 0.20 0.01 87 1006.2
20260509134547 55 212 7.0 21.0 0.00 0.20 0.01 88 1006.3
20260509134043 55 257 10.0 21.0 0.00 0.20 0.01 88 1006.3
20260509133542 55 214 10.0 19.0 0.00 0.20 0.01 88 1006.2
20260509133042 55 171 6.0 14.0 0.00 0.20 0.01 89 1006.4
20260509132541 55 273 6.0 18.0 0.00 0.20 0.01 89 1006.5
20260509132040 54 212 10.0 18.0 0.00 0.20 0.01 89 1006.4
20260509131541 54 252 7.0 17.0 0.00 0.20 0.01 89 1006.3
20260509131037 54 202 8.0 15.0 0.00 0.20 0.01 89 1006.3
20260509130536 54 240 6.0 14.0 0.00 0.20 0.01 89 1006.3
20260509130036 53 216 7.0 17.0 0.00 0.20 0.01 89 1006.3
20260509125534 54 213 5.0 17.0 0.00 0.22 0.01 89 1006.4
20260509125034 53 218 6.0 16.0 0.00 0.22 0.01 89 1006.5
20260509124547 53 231 7.0 16.0 0.00 0.22 0.01 89 1006.5
20260509124036 53 216 6.0 16.0 0.00 0.22 0.01 89 1006.5
20260509123533 53 194 7.0 16.0 0.00 0.22 0.01 89 1006.5
20260509123033 53 228 6.0 14.0 0.00 0.22 0.01 89 1006.6
20260509122531 53 182 6.0 14.0 0.00 0.22 0.01 89 1006.7
20260509122030 53 197 4.0 12.0 0.00 0.22 0.01 89 1006.7
20260509121533 53 240 6.0 12.0 0.00 0.22 0.01 89 1006.8
20260509121028 53 233 6.0 13.0 0.00 0.22 0.01 89 1006.8
20260509120527 53 218 7.0 13.0 0.00 0.22 0.01 89 1006.7
20260509120027 53 204 6.0 11.0 0.00 0.22 0.01 89 1006.6
20260509115525 53 221 5.0 10.0 0.00 0.22 0.01 89 1006.7
20260509115026 52 245 4.0 14.0 0.00 0.22 0.01 89 1006.7
20260509114525 52 208 7.0 14.0 0.00 0.22 0.01 89 1006.8
20260509114023 52 199 5.0 12.0 0.00 0.22 0.01 89 1006.8
20260509113529 52 209 5.0 12.0 0.00 0.22 0.01 89 1006.8
20260509113023 52 184 4.0 10.0 0.00 0.22 0.01 89 1006.7
20260509112522 52 215 3.0 10.0 0.00 0.22 0.01 89 1006.7
20260509112022 52 196 5.0 10.0 0.00 0.22 0.01 89 1006.7
20260509111520 52 185 5.0 10.0 0.00 0.22 0.01 89 1006.7
20260509111022 52 167 4.0 9.0 0.00 0.22 0.01 89 1006.6
20260509110618 52 216 5.0 10.0 0.00 0.22 0.01 89 1006.6
20260509110018 52 211 5.0 10.0 0.00 0.22 0.01 89 1006.6
20260509105517 52 218 3.0 10.0 0.00 0.22 0.01 89 1006.5
20260509105017 52 180 5.0 11.0 0.00 0.22 0.01 89 1006.5
20260509104529 52 207 5.0 11.0 0.00 0.22 0.01 89 1006.5
20260509104014 52 173 3.0 8.0 0.00 0.22 0.01 89 1006.5
20260509103513 52 196 4.0 8.0 0.00 0.22 0.01 89 1006.5
20260509103012 52 229 3.0 7.0 0.00 0.22 0.01 89 1006.5
20260509102510 52 162 2.0 10.0 0.00 0.22 0.01 89 1006.4
20260509102011 52 192 3.0 10.0 0.00 0.22 0.01 89 1006.5
20260509101509 52 186 5.0 9.0 0.00 0.22 0.01 89 1006.5
20260509101007 52 217 3.0 9.0 0.00 0.22 0.01 89 1006.5
20260509100505 52 173 3.0 8.0 0.00 0.22 0.01 89 1006.5
20260509100005 52 241 4.0 10.0 0.00 0.22 0.01 89 1006.6
20260509095504 52 188 4.0 10.0 0.00 0.22 0.01 89 1006.6
20260509095003 52 194 4.0 9.0 0.00 0.22 0.01 89 1006.6
20260509094505 52 206 4.0 10.0 0.00 0.22 0.01 89 1006.6
20260509094100 52 140 4.0 11.0 0.00 0.22 0.01 89 1006.7
20260509093559 52 210 4.0 14.0 0.00 0.22 0.01 89 1006.7
20260509093057 52 173 6.0 14.0 0.00 0.22 0.01 89 1006.7
20260509092555 52 212 4.0 8.0 0.00 0.22 0.01 89 1006.7
20260509092056 52 218 3.0 10.0 0.00 0.22 0.01 89 1006.7
20260509091553 52 183 3.0 10.0 0.00 0.22 0.01 89 1006.8
20260509091054 52 182 6.0 13.0 0.00 0.22 0.01 89 1006.8
20260509090550 52 173 5.0 13.0 0.00 0.22 0.01 89 1006.9
20260509090049 52 156 5.0 13.0 0.00 0.22 0.01 89 1006.9
20260509085548 52 173 6.0 15.0 0.00 0.22 0.01 89 1007.0
20260509085048 51 212 7.0 15.0 0.00 0.22 0.01 89 1006.9
20260509084553 51 189 6.0 12.0 0.00 0.22 0.01 89 1007.0
20260509084048 51 218 6.0 13.0 0.00 0.22 0.01 89 1007.1
20260509083549 51 215 7.0 14.0 0.00 0.22 0.01 89 1007.1
20260509083047 51 207 5.0 14.0 0.00 0.22 0.01 89 1007.2
20260509082546 51 217 7.0 14.0 0.00 0.22 0.01 89 1007.1
20260509082049 51 173 5.0 10.0 0.00 0.22 0.01 88 1007.2
20260509081548 51 257 5.0 11.0 0.00 0.22 0.01 88 1007.2
20260509081048 51 207 5.0 11.0 0.00 0.22 0.01 88 1007.2
20260509080547 51 231 5.0 11.0 0.00 0.22 0.01 88 1007.2
20260509080046 51 220 6.0 14.0 0.00 0.22 0.01 88 1007.2
20260509075545 52 166 5.0 14.0 0.00 0.22 0.01 88 1007.2
20260509075044 52 196 5.0 10.0 0.00 0.22 0.01 88 1007.2
20260509074546 52 210 5.0 11.0 0.00 0.22 0.01 88 1007.3
20260509074043 52 165 4.0 14.0 0.00 0.22 0.01 88 1007.3
20260509073542 52 213 6.0 14.0 0.00 0.22 0.01 88 1007.2
20260509073043 51 213 5.0 12.0 0.00 0.22 0.01 88 1007.2
20260509072542 51 183 4.0 11.0 0.00 0.22 0.01 88 1007.2
20260509072041 51 232 4.0 11.0 0.00 0.22 0.01 88 1007.3
20260509071545 51 206 4.0 10.0 0.00 0.22 0.01 88 1007.3
20260509071044 51 180 5.0 13.0 0.00 0.22 0.01 88 1007.4
20260509070540 51 189 3.0 14.0 0.00 0.22 0.01 88 1007.4
20260509070041 51 217 7.0 14.0 0.00 0.22 0.01 88 1007.4
20260509065537 51 217 7.0 15.0 0.00 0.22 0.01 88 1007.5
20260509065037 51 192 5.0 15.0 0.00 0.22 0.01 88 1007.5
20260509064537 51 197 8.0 14.0 0.00 0.22 0.01 88 1007.6
20260509064037 51 203 6.0 15.0 0.00 0.22 0.01 88 1007.6
20260509063535 51 188 5.0 15.0 0.00 0.22 0.01 88 1007.7
20260509063038 51 243 6.0 16.0 0.00 0.22 0.01 88 1007.7
20260509062535 51 218 8.0 17.0 0.00 0.22 0.01 88 1007.7
20260509062034 51 150 7.0 17.0 0.00 0.22 0.01 88 1007.8
20260509061544 51 226 8.0 15.0 0.00 0.22 0.01 88 1007.9
20260509061032 51 214 6.0 15.0 0.00 0.22 0.01 88 1008.0
20260509060531 51 191 7.0 14.0 0.00 0.22 0.01 88 1008.0
20260509060030 51 189 5.0 15.0 0.00 0.22 0.01 88 1008.1
20260509055529 51 301 6.0 15.0 0.00 0.22 0.01 88 1008.2
20260509055029 51 197 8.0 15.0 0.00 0.22 0.01 88 1008.1
20260509054529 51 215 7.0 17.0 0.00 0.22 0.01 88 1008.3
20260509054030 51 218 6.0 17.0 0.00 0.22 0.01 88 1008.3
20260509053527 51 213 7.0 17.0 0.00 0.22 0.01 88 1008.3
20260509053030 51 91 5.0 11.0 0.00 0.22 0.01 88 1008.3
20260509052526 51 230 6.0 11.0 0.00 0.22 0.01 87 1008.3
20260509052026 51 217 5.0 14.0 0.00 0.22 0.01 87 1008.4
20260509051531 51 199 5.0 14.0 0.00 0.22 0.01 87 1008.4
20260509051024 51 196 5.0 13.0 0.00 0.22 0.01 87 1008.4
20260509050524 51 184 7.0 13.0 0.00 0.22 0.01 87 1008.5
20260509050028 51 208 6.0 13.0 0.01 0.22 0.01 87 1008.4
20260509045522 51 218 4.0 11.0 0.01 0.22 0.01 87 1008.5
20260509045022 51 195 4.0 11.0 0.01 0.22 0.01 87 1008.5
20260509044529 51 178 6.0 11.0 0.01 0.22 0.01 87 1008.5
20260509044020 51 209 4.0 11.0 0.01 0.22 0.01 87 1008.5
20260509043519 51 220 4.0 12.0 0.01 0.22 0.01 87 1008.6
20260509043019 51 247 7.0 12.0 0.01 0.22 0.01 87 1008.7
20260509042520 51 162 5.0 12.0 0.01 0.22 0.01 87 1008.7
20260509042018 51 225 4.0 21.0 0.01 0.22 0.01 87 1008.7
20260509041517 51 179 8.0 21.0 0.01 0.22 0.01 87 1008.8
20260509041016 51 162 6.0 13.0 0.01 0.22 0.01 87 1009.0
20260509040514 51 168 3.0 10.0 0.02 0.22 0.01 87 1009.0
20260509040016 51 173 5.0 11.0 0.01 0.21 0.00 87 1009.2
20260509035515 51 215 6.0 12.0 0.01 0.21 0.21 87 1009.2
20260509035015 51 239 7.0 14.0 0.01 0.21 0.21 87 1009.1
20260509034515 51 194 7.0 14.0 0.01 0.21 0.21 87 1009.1
20260509034012 51 208 6.0 14.0 0.01 0.21 0.21 87 1009.2
20260509033512 51 221 5.0 14.0 0.01 0.21 0.21 87 1009.1
20260509033012 51 232 7.0 14.0 0.01 0.21 0.21 87 1009.3
20260509032515 51 192 6.0 14.0 0.01 0.21 0.21 87 1009.3
20260509032011 51 191 6.0 14.0 0.01 0.21 0.21 87 1009.4
20260509031511 51 197 6.0 15.0 0.01 0.21 0.21 87 1009.4
20260509031111 51 222 7.0 15.0 0.01 0.21 0.21 87 1009.6
20260509030511 51 223 7.0 17.0 0.00 0.20 0.20 87 1009.6
20260509030011 51 218 7.0 17.0 0.00 0.20 0.20 87 1009.6
20260509025510 51 192 8.0 17.0 0.00 0.20 0.20 87 1009.6
20260509025010 51 205 7.0 17.0 0.00 0.20 0.20 87 1009.7
20260509024510 51 204 5.0 11.0 0.00 0.20 0.20 87 1009.6
20260509024013 50 194 6.0 10.0 0.00 0.20 0.20 87 1009.6
20260509023513 50 206 5.0 14.0 0.00 0.20 0.20 87 1009.6
20260509023015 50 214 6.0 14.0 0.00 0.20 0.20 87 1009.7
20260509022509 50 203 8.0 14.0 0.00 0.20 0.20 87 1009.7
20260509022009 50 190 6.0 13.0 0.00 0.20 0.20 87 1009.6
20260509021514 50 187 4.0 16.0 0.00 0.20 0.20 87 1009.6
20260509021012 50 199 7.0 16.0 0.00 0.20 0.20 87 1009.7
20260509020511 50 214 3.0 12.0 0.00 0.20 0.20 87 1009.7
20260509020008 50 215 8.0 12.0 0.00 0.20 0.20 87 1009.6
20260509015508 50 203 5.0 10.0 0.00 0.20 0.20 87 1009.6
20260509015008 50 267 4.0 10.0 0.00 0.20 0.20 87 1009.7
20260509014508 50 160 4.0 12.0 0.00 0.20 0.20 87 1009.6
20260509014007 50 196 6.0 12.0 0.01 0.20 0.20 87 1009.6
20260509013507 50 221 4.0 10.0 0.01 0.20 0.20 86 1009.5
20260509013021 50 240 6.0 12.0 0.01 0.20 0.20 87 1009.7
20260509012509 50 180 5.0 12.0 0.01 0.20 0.20 86 1009.5
20260509012007 50 199 4.0 10.0 0.02 0.20 0.20 86 1009.7
20260509011506 50 183 6.0 12.0 0.02 0.20 0.20 86 1009.6
20260509011005 50 221 4.0 13.0 0.02 0.20 0.20 86 1009.6
20260509010506 50 166 7.0 13.0 0.03 0.20 0.20 86 1009.6
20260509010005 50 216 6.0 14.0 0.04 0.20 0.20 86 1009.6
20260509005508 50 191 7.0 14.0 0.04 0.20 0.20 86 1009.5
20260509005005 50 173 7.0 15.0 0.04 0.20 0.20 86 1009.5
20260509004506 50 210 7.0 15.0 0.04 0.20 0.20 86 1009.6
20260509004005 50 202 8.0 12.0 0.04 0.19 0.19 86 1009.5
20260509003508 50 178 6.0 12.0 0.05 0.19 0.19 86 1009.4
20260509003004 50 237 3.0 13.0 0.06 0.19 0.19 86 1009.3
20260509002505 50 185 6.0 14.0 0.06 0.19 0.19 86 1009.2
20260509002003 50 211 7.0 14.0 0.06 0.18 0.18 85 1009.3
20260509001502 50 235 9.0 14.0 0.07 0.18 0.18 85 1009.4
20260509001103 50 223 7.0 13.0 0.08 0.18 0.18 85 1009.5
20260509000502 50 211 7.0 13.0 0.07 0.17 0.17 85 1009.4
20260509000002 50 190 4.0 9.0 0.06 0.16 0.16 85 1009.3
20260508235502 50 163 2.0 10.0 0.07 0.16 0.16 84 1009.4
20260508235104 51 183 2.0 10.0 0.07 0.16 0.16 84 1009.4
20260508234504 51 217 4.0 9.0 0.08 0.16 0.16 84 1009.4
20260508234000 51 188 3.0 8.0 0.07 0.15 0.15 84 1009.4
20260508233600 51 213 4.0 9.0 0.06 0.14 0.14 84 1009.6
20260508233104 51 195 4.0 9.0 0.06 0.13 0.13 84 1009.5
20260508232559 51 211 4.0 8.0 0.06 0.13 0.13 83 1009.5
20260508232059 51 201 3.0 10.0 0.06 0.12 0.12 83 1009.3
20260508231604 51 227 5.0 10.0 0.07 0.12 0.12 83 1009.5
20260508231058 51 238 4.0 8.0 0.05 0.10 0.10 83 1009.5
20260508230557 51 213 4.0 8.0 0.06 0.10 0.10 82 1009.4
20260508225557 51 124 3.0 8.0 0.06 0.09 0.09 82 1009.6
20260508225059 51 236 4.0 8.0 0.05 0.08 0.08 81 1009.7
20260508224607 51 165 3.0 9.0 0.05 0.08 0.08 81 1009.6
20260508224056 52 233 5.0 10.0 0.05 0.08 0.08 81 1009.5
20260508223557 52 209 5.0 10.0 0.05 0.08 0.08 80 1009.7
20260508223056 52 182 4.0 9.0 0.04 0.07 0.07 80 1009.5
20260508222555 52 233 3.0 9.0 0.03 0.06 0.06 79 1009.5
20260508222058 52 213 4.0 10.0 0.03 0.06 0.06 79 1009.7
20260508221603 52 229 4.0 11.0 0.02 0.05 0.05 78 1009.7
20260508221055 52 211 6.0 11.0 0.02 0.05 0.05 78 1009.7
20260508220553 52 240 2.0 12.0 0.01 0.04 0.04 77 1009.6
20260508220054 52 173 5.0 12.0 0.01 0.04 0.04 77 1009.7
20260508215553 52 239 5.0 12.0 0.00 0.03 0.03 77 1009.5
20260508215053 53 229 6.0 12.0 0.00 0.03 0.03 77 1009.1
20260508214553 53 248 4.0 10.0 0.00 0.03 0.03 77 1009.3
20260508214053 53 160 5.0 10.0 0.00 0.03 0.03 77 1009.2
20260508213551 53 201 4.0 12.0 0.00 0.03 0.03 76 1009.2
20260508213111 53 259 6.0 15.0 0.00 0.03 0.03 76 1009.6
20260508212551 53 247 9.0 15.0 0.00 0.03 0.03 76 1009.5
20260508212051 53 236 7.0 15.0 0.00 0.03 0.03 76 1009.6